Погода в Рагане

Латвия     57°10′43″N   24°42′26″E
темп.,
°C
ветер,
м/с
пор.,
м/с
влажн.,
%
обл.,
%
осадки,
мм/ч
давл.,
гПа
погр.,
м
13 июня, вс
вс1300:00+12зюз2599100 5.2 1002299
03:00+11ю1199100 5.5 100244
06:00+12юз2599100 0.0 1002200
09:00+14зсз3595100 0.1 1004486
12:00+15сз6883100 0.5 1006829
15:00+16сз61068100 1.0 10081111
18:00+15сз61163100 0.1 1011829
21:00+12сз5117244 0.1 1013510
14 июня, пн
пн1400:00+9ссз310840 0.0 1016298
03:00+7ссз28930 0.0 1017165
06:00+8ссз29875 0.0 1019253
09:00+15с355290 0.0 1019779
12:00+19ссз2336100 0.0 10191310
15:00+20зсз3235100 0.0 10181406
18:00+19зсз224493 0.0 1017637
21:00+15ююз22655 0.0 101620
15 июня, вт
вт1500:00+11ююз3107953 0.0 1015197
03:00+11ююз41281100 0.0 1014352
06:00+12ююз41282100 0.0 1013415
09:00+16юз4877100 0.0 1012610
12:00+15юз4898100 2.6 1013717
15:00+19з4758100 2.9 10131399
18:00+16сз475897 0.0 1014747
21:00+13сз39710 0.0 1015469
16 июня, ср
ср1600:00+9сз22940 0.0 101637
03:00+9зсз11965 0.0 101815
06:00+10ссв009534 0.0 101916
09:00+16св12565 0.0 1020483
12:00+21всв113913 0.0 10211474
15:00+22зсз223515 0.0 10211876
18:00+21зсз31415 0.0 1021767
21:00+16с11685 0.0 102111
17 июня, чт
чт1700:00+12юв117333 0.0 102310
03:00+11ю117796 0.0 102411
06:00+12ю23835 0.0 102466
09:00+19ю35595 0.0 1024507
12:00+23ююз34420 0.0 10241487
15:00+25юз34360 0.0 10241842
18:00+24юз34410 0.0 10231532
21:00+19юз11750 0.0 102316